Tracking 31027 objects as of 19-Jul-2025
HD Live streaming from Space Station
objects crossing your sky now

YAOGAN-31 F

Track YAOGAN-31 F now!
10-day predictions


NORAD ID: 47536
Int'l Code: 2021-007E
Perigee: 987.2 km
Apogee: 1,205.5 km
Inclination: 63.4 °
Period: 107.0 minutes
Semi major axis: 7467 km
RCS: Unknown
Launch date: January 29, 2021
Source: People's Republic of China (PRC)
Launch site: Jiuquan Satellite Launch Center, China (JSC)
Your satellite tracking list
SL-8 DEB
Track 1 satellite(s)




NASA's NSSDC Master Catalog

Two Line Element Set (TLE):
1 47536U 21007E   25199.84267013 -.00000056  00000-0  54356-4 0  9991
2 47536  63.4042 278.7088 0146136 359.3339   0.7470 13.45411251219504
Source of the keplerian elements: AFSPC